Карлук

Узбекистан     38°11′35″N   67°41′21″E
темп.,
°C
ветер,
м/с
пор.,
м/с
влажн.,
%
обл.,
%
осадки,
мм/ч
давл.,
гПа
погр.,
м
16 мая, вс
вс1623:00+22с33280 0.0 100934
02:00+20ссв23310 0.0 100940
05:00+20ссв44300 0.0 100956
08:00+25св45260 0.0 1011346
11:00+29в21230 0.0 10101534
14:00+31ю43150 0.0 10093417
17:00+28ссв54243 0.0 1008698
20:00+23с333677 0.0 100948
17 мая, пн
пн1723:00+23с343129 0.0 101064
02:00+22ссв33315 0.0 101047
05:00+20ссв34335 0.0 101056
08:00+26св34255 0.0 1012311
11:00+29в21210 0.0 10111410
14:00+32ю33135 0.0 10093830
17:00+32ю33120 0.0 10083536
20:00+25ссз11215 0.0 100811
18 мая, вт
вт1823:00+24с33250 0.0 100929
02:00+23ссв44290 0.0 100949
05:00+22с44272 0.0 100846
08:00+27св342336 0.0 1009389
11:00+31юв12175 0.0 10081975
14:00+33ю34122 0.0 10064025
17:00+33ююз54120 0.0 10053694
20:00+26зсз11225 0.0 100613
19 мая, ср
ср1923:00+24ссв33275 0.0 100838
02:00+23с45270 0.0 100760
05:00+22с33280 0.0 100732
08:00+27св34250 0.0 1008472
11:00+31вюв12170 0.0 10082197
14:00+33ююв33100 0.0 10063932
17:00+33ююз3370 0.0 10053562
20:00+26зюз2211100 0.0 100511
20 мая, чт
чт2023:00+24с4417100 0.0 100644
02:00+24с4420100 0.0 100645
05:00+22с332223 0.0 100534
08:00+27св3420100 0.0 1006341
11:00+31юв2114100 0.0 10061462
14:00+33ююв33737 0.0 10043755
17:00+33в239100 0.0 10023767
20:00+26ссз452598 0.0 100282